Wind_Speed
10 9 8 8 8 7 7 8 9 10 11 12 12 13 13 15 15 18 22 25 27 28
7 6 5 4 4 4 5 6 8 9 12 13 13 14 15 15 15 17 20 23 24 24
7 5 4 4 4 4 4 5 7 9 12 14 14 15 15 15 16 16 17 18 18 19
9 8 6 4 3 0 2 4 6 9 12 13 13 14 16 17 16 17 19 18 17 17
8 8 7 5 3 3 3 4 6 8 9 12 14 15 16 16 17 18 18 17 17 17
6 5 4 3 2 1 3 4 7 8 10 12 13 18 17 18 19 19 20 20 19 20
1 0 1 2 3 5 6 7 8 9 12 14 16 17 20 22 23 22 23 22 21 22
2 0 2 3 5 6 9 9 11 12 16 15 16 21 25 27 26 25 24 23 26 27
4 2 2 5 6 8 10 13 16 16 19 21 21 25 28 31 28 26 27 29 28 28
11 11 10 10 11 12 14 15 18 19 22 26 28 29 31 32 30 29 31 31 34 31
6 6 7 9 12 15 17 18 20 21 22 26 29 29 29 33 31 33 34 34 34 34
9 10 11 12 14 15 17 18 22 26 26 28 29 27 26 32 31 35 34 32 32 33
11 12 14 15 18 18 19 22 21 24 28 28 30 29 28 29 28 32 32 33 31 34
13 14 16 18 19 20 21 23 25 25 26 28 28 29 27 25 26 33 29 28 31 36
Wind_Direction
168 172 178 182 185 212 231 242 242 239 245 254 256 244 248 246 257 259 248 238 232 225
136 140 159 168 182 197 219 253 271 268 265 263 264 265 257 250 246 245 240 239 231 227
142 153 166 191 203 218 235 247 248 259 261 259 260 257 245 239 239 238 238 236 227 222
111 114 120 127 133 164 285 286 282 277 273 267 255 244 238 233 232 226 223 217 214 217
123 126 121 113 120 198 236 265 270 265 263 268 262 246 238 235 227 220 213 212 207 213
126 132 133 148 183 265 274 274 268 269 267 257 246 250 240 233 227 220 218 212 220 222
96 326 290 296 308 315 295 284 287 283 275 269 260 243 241 234 224 219 224 229 224 211
139 184 244 306 318 309 288 281 281 277 270 263 265 259 246 234 225 228 233 230 222 220
160 125 2 340 317 301 306 302 299 292 284 280 274 268 254 242 235 232 232 229 221 213
13 4 347 325 315 316 316 307 301 296 293 287 279 273 257 246 244 243 238 228 222 216
1 330 321 320 311 310 308 299 290 288 289 286 281 282 277 258 247 244 240 232 223 215
312 307 308 315 311 306 301 295 291 291 277 275 281 284 288 273 250 242 239 229 225 216
303 304 309 307 308 300 293 287 282 281 282 282 284 286 286 275 252 243 239 229 217 224
304 307 304 305 300 298 296 290 282 279 284 283 280 283 283 277 257 242 231 223 214 221
Height
760 763 766 768 771 776 781 784 785 785 786 787 789 788 788 791 795 797 796 795 797 802
761 763 766 769 771 772 774 779 783 784 785 785 786 787 788 786 787 788 790 793 794 794
763 766 768 770 772 774 775 776 777 780 782 782 783 783 784 784 784 787 791 793 792 792
765 766 769 772 773 774 776 777 778 779 782 782 779 779 780 779 780 783 784 785 788 791
766 768 770 772 773 775 774 774 776 776 776 780 781 779 778 779 779 779 780 782 784 787
767 768 769 772 773 772 772 773 775 775 774 772 769 778 776 775 777 779 781 777 780 780
770 770 770 771 771 771 772 772 771 772 772 772 773 769 773 772 770 769 775 777 777 781
767 768 769 769 769 768 770 769 769 767 769 765 765 770 769 770 767 769 772 775 775 776
766 766 766 765 766 766 766 765 764 760 764 762 760 764 765 769 765 763 764 768 772 772
759 759 762 763 762 759 757 759 758 757 759 756 758 759 760 760 759 760 761 760 763 768
757 759 758 755 755 756 755 754 754 753 755 756 755 755 753 753 753 753 753 753 757 760
759 757 755 752 753 752 751 752 750 749 750 750 747 748 746 748 748 749 748 748 753 752
756 754 750 751 749 747 748 747 745 744 742 741 739 740 741 742 742 746 748 746 742 753
751 750 749 746 744 742 740 740 736 736 734 735 735 733 734 736 737 739 739 744 741 745